Location: Cran-Gévrier
(45.9039°N, 6.1012°E)
Time: 04:28:53
(UTC+00:00)

CSL-04 Rocket - Pass Details

Date: 09 February 2023
Orbit: 806 x 859 km, 98.8° (Epoch: 29 March)

Event Time Altitude Azimuth Distance (km) Brightness Sun altitude
Exits shadow 18:43:58 37° 103° (ESE) 1,271 4.1 -19.8°
Maximum altitude 18:45:17 44° 67° (ENE) 1,145 3.9 -20.0°
Drops below altitude 10° 18:50:25 10° 358° (N) 2,462 6.1 -20.9°
Sets 18:52:53 0° 352° (N) 3,409 7.0 -21.3°
